Weather History for KPLU - March, 2014

Change the Weather History Date:

Monday, March 3, 2014

  Actual Average (KTCM) Record (KTCM)
Temperature  
Mean Temperature 48 °F -  
Max Temperature 53 °F 48 °F 66 °F (1965)
Min Temperature 44 °F 32 °F 13 °F (1989)
Degree Days  
Heating Degree Days 16    
Moisture  
Dew Point 47 °F    
Average Humidity 94    
Maximum Humidity 100    
Minimum Humidity 82    
Precipitation  
Precipitation 0.26 in - - ()
Sea Level Pressure  
Sea Level Pressure 29.77 in    
Wind  
Wind Speed 5 mph (SSW)    
Max Wind Speed 12 mph    
Max Gust Speed 18 mph    
Visibility 8 miles    
Events Rain    
Averages and records for this station are not official NWS values.
T = Trace of Precipitation, MM = Missing Value Source: NWS Daily Summary

Daily Weather History Graph

Daily Weather History Graph

Search for Another Location

Airport or City:

Trip Planner

Search our weather history database for the weather conditions in past years. The results will help you decide how hot, cold, wet, or windy it might be!

Date:

Astronomy

Mar. 03, 2014 Rise Set
Actual Time 6:45 AM PST 5:57 PM PST
Civil Twilight 6:14 AM PST 6:28 PM PST
Nautical Twilight 5:39 AM PST 7:03 PM PST
Astronomical Twilight 5:03 AM PST 7:39 PM PST
Moon 7:44 AM PST (3/3) 9:21 PM PST (3/3)
Length of Visible Light 12h 13m
Length of Day
11h 12m
Waxing Crescent, 8% of the Moon is Illuminated
Mar 3
Waxing Crescent
Mar 8
First Quarter
Mar 16
Full
Mar 23
Last Quarter
Mar 30
New

Hourly Weather History & Observations

Time (PST) Temp. Windchill Dew Point Humidity Pressure Visibility Wind Dir Wind Speed Gust Speed Precip Events Conditions
12:15 AM 46.4 °F 44.3 °F 46.4 °F 100% 29.77 in 10.0 mi SSW 4.6 mph - N/A   Unknown
12:35 AM 46.4 °F 42.9 °F 46.4 °F 100% 29.78 in 5.0 mi SSW 6.9 mph - N/A Rain Light Rain
12:55 AM 46.4 °F 43.5 °F 46.4 °F 100% 29.78 in 10.0 mi SW 5.8 mph - N/A   Unknown
1:15 AM 46.4 °F 45.2 °F 46.4 °F 100% 29.78 in 9.0 mi South 3.5 mph - N/A Rain Light Rain
1:35 AM 46.4 °F 45.2 °F 46.4 °F 100% 29.78 in 10.0 mi South 3.5 mph - N/A   Unknown
1:55 AM 46.4 °F 44.3 °F 46.4 °F 100% 29.78 in 9.0 mi SW 4.6 mph - N/A Rain Light Rain
2:15 AM 46.4 °F 43.5 °F 46.4 °F 100% 29.78 in 10.0 mi SSW 5.8 mph - N/A   Unknown
2:35 AM 46.4 °F 42.9 °F 46.4 °F 100% 29.78 in 10.0 mi South 6.9 mph - N/A   Unknown
2:55 AM 48.2 °F - 44.6 °F 87% 29.77 in 10.0 mi SSW 4.6 mph - N/A   Unknown
3:15 AM 48.2 °F - 44.6 °F 87% 29.76 in 10.0 mi SSW 3.5 mph - N/A   Unknown
3:35 AM 48.2 °F - 46.4 °F 93% 29.75 in 10.0 mi South 4.6 mph - N/A   Unknown
3:55 AM 48.2 °F - 46.4 °F 93% 29.75 in 10.0 mi Calm Calm - N/A   Unknown
4:15 AM 48.2 °F - 46.4 °F 93% 29.74 in 10.0 mi South 3.5 mph - N/A   Unknown
4:35 AM 48.2 °F - 44.6 °F 87% 29.73 in 10.0 mi South 5.8 mph - N/A   Unknown
4:55 AM 48.2 °F - 44.6 °F 87% 29.73 in 10.0 mi South 4.6 mph - N/A   Unknown
5:15 AM 46.4 °F 45.2 °F 44.6 °F 93% 29.72 in 10.0 mi SSE 3.5 mph - N/A   Unknown
5:35 AM 48.2 °F - 44.6 °F 87% 29.71 in 10.0 mi South 6.9 mph - N/A   Unknown
5:55 AM 48.2 °F - 44.6 °F 87% 29.70 in 10.0 mi South 6.9 mph - N/A Rain Light Rain
6:15 AM 48.2 °F - 46.4 °F 93% 29.70 in 7.0 mi South 3.5 mph - 0.01 in Rain Light Rain
6:35 AM 46.4 °F 44.3 °F 46.4 °F 100% 29.70 in 5.0 mi South 4.6 mph - 0.04 in Rain Light Rain
6:55 AM 46.4 °F 43.5 °F 44.6 °F 93% 29.69 in 5.0 mi South 5.8 mph - 0.07 in Rain Light Rain
7:15 AM 46.4 °F 41.9 °F 44.6 °F 93% 29.69 in 5.0 mi South 9.2 mph - 0.04 in Rain Light Rain
7:35 AM 44.6 °F 41.4 °F 44.6 °F 100% 29.69 in 7.0 mi South 5.8 mph - 0.06 in Rain Light Rain
7:55 AM 44.6 °F - 44.6 °F 100% 29.69 in 5.0 mi Calm Calm - 0.07 in Rain Light Rain
8:15 AM 44.6 °F - 44.6 °F 100% 29.68 in 7.0 mi Calm Calm - N/A Rain Light Rain
8:35 AM 44.6 °F 43.1 °F 44.6 °F 100% 29.67 in 10.0 mi SSE 3.5 mph - N/A Rain Light Rain
9:00 AM 46.4 °F 42.9 °F 44.6 °F 93% 29.67 in 9.0 mi SSE 6.9 mph - N/A Rain Light Rain
9:15 AM 46.4 °F 42.4 °F 44.6 °F 93% 29.67 in 9.0 mi SSE 8.1 mph - N/A Rain Light Rain
9:35 AM 48.2 °F - 46.4 °F 93% 29.68 in 7.0 mi South 6.9 mph - N/A Rain Light Rain
9:55 AM 48.2 °F - 46.4 °F 93% 29.68 in 2.5 mi SSW 6.9 mph - 0.02 in Rain Light Rain
10:15 AM 48.2 °F - 46.4 °F 93% 29.68 in 10.0 mi SSW 9.2 mph - N/A   Unknown
10:35 AM 50.0 °F - 48.2 °F 94% 29.69 in 10.0 mi South 5.8 mph 18.4 mph N/A   Unknown
10:55 AM 50.0 °F - 48.2 °F 94% 29.69 in 5.0 mi SSW 8.1 mph 17.3 mph N/A   Mist
11:15 AM 50.0 °F - 48.2 °F 94% 29.69 in 3.0 mi South 6.9 mph - N/A Rain Light Rain
11:35 AM 48.2 °F - 48.2 °F 100% 29.69 in 2.5 mi South 5.8 mph - 0.01 in Rain Light Rain
11:55 AM 50.0 °F - 50.0 °F 100% 29.69 in 3.0 mi South 4.6 mph - 0.02 in Rain Light Rain
12:15 PM 50.0 °F - 50.0 °F 100% 29.70 in 3.0 mi SW 5.8 mph - 0.01 in Rain Light Rain
12:35 PM 50.0 °F - 50.0 °F 100% 29.71 in 4.0 mi WSW 9.2 mph - 0.04 in Rain Light Rain
12:55 PM 50.0 °F - 50.0 °F 100% 29.72 in 10.0 mi WSW 6.9 mph - 0.05 in   Unknown
1:15 PM 50.0 °F - 50.0 °F 100% 29.72 in 10.0 mi WSW 9.2 mph - N/A   Unknown
1:40 PM 50.0 °F - 50.0 °F 100% 29.73 in 4.0 mi West 4.6 mph - N/A Rain Light Rain
1:55 PM 50.0 °F - 50.0 °F 100% 29.74 in 2.5 mi WNW 5.8 mph - 0.02 in Rain Light Rain
2:15 PM 50.0 °F - 50.0 °F 100% 29.74 in 2.5 mi West 4.6 mph - N/A Rain Light Rain
2:35 PM 50.0 °F - 50.0 °F 100% 29.75 in 10.0 mi West 4.6 mph - N/A   Unknown
2:55 PM 50.0 °F - 50.0 °F 100% 29.76 in 10.0 mi WSW 4.6 mph - N/A   Unknown
3:15 PM 50.0 °F - 50.0 °F 100% 29.77 in 8.0 mi SW 5.8 mph - 0.01 in Rain Light Rain
3:35 PM 51.8 °F - 50.0 °F 94% 29.77 in 10.0 mi SSW 4.6 mph - 0.01 in   Unknown
3:55 PM 51.8 °F - 50.0 °F 94% 29.78 in 10.0 mi West 4.6 mph - 0.01 in   Unknown
4:15 PM 50.0 °F - 48.2 °F 94% 29.79 in 10.0 mi West 6.9 mph - N/A   Unknown
4:35 PM 51.8 °F - 48.2 °F 88% 29.80 in 10.0 mi West 6.9 mph - N/A   Unknown
4:55 PM 53.6 °F - 48.2 °F 82% 29.81 in 10.0 mi WSW 8.1 mph - N/A   Unknown
5:15 PM 51.8 °F - 46.4 °F 82% 29.82 in 10.0 mi SW 10.4 mph 16.1 mph N/A   Unknown
5:35 PM 50.0 °F - 46.4 °F 87% 29.83 in 10.0 mi WSW 8.1 mph - N/A   Unknown
5:55 PM 50.0 °F - 46.4 °F 87% 29.83 in 10.0 mi SW 11.5 mph - N/A   Unknown
6:15 PM 50.0 °F - 46.4 °F 87% 29.85 in 10.0 mi SW 5.8 mph - N/A   Unknown
6:35 PM 50.0 °F - 46.4 °F 87% 29.85 in 10.0 mi SSW 5.8 mph - N/A   Unknown
6:55 PM 48.2 °F - 46.4 °F 93% 29.87 in 10.0 mi SW 5.8 mph - N/A   Unknown
7:15 PM 48.2 °F - 46.4 °F 93% 29.87 in 10.0 mi SW 6.9 mph - N/A   Unknown
7:35 PM 48.2 °F - 46.4 °F 93% 29.88 in 10.0 mi SW 4.6 mph - N/A   Unknown
7:55 PM 48.2 °F - 46.4 °F 93% 29.87 in 10.0 mi SSW 3.5 mph - N/A   Unknown
8:15 PM 48.2 °F - 46.4 °F 93% 29.88 in 10.0 mi SW 4.6 mph - N/A   Unknown
8:35 PM 48.2 °F - 44.6 °F 87% 29.88 in 10.0 mi SSW 8.1 mph - N/A   Unknown
8:55 PM 48.2 °F - 44.6 °F 87% 29.89 in 10.0 mi SSW 5.8 mph - N/A   Unknown
9:15 PM 48.2 °F - 44.6 °F 87% 29.89 in 10.0 mi SSW 4.6 mph - N/A   Unknown
9:35 PM 48.2 °F - 44.6 °F 87% 29.90 in 10.0 mi SSW 5.8 mph - N/A   Unknown
10:00 PM 48.2 °F - 44.6 °F 87% 29.90 in 10.0 mi SSW 6.9 mph - N/A   Unknown
10:15 PM 48.2 °F - 44.6 °F 87% 29.91 in 10.0 mi SSW 6.9 mph - N/A   Unknown
10:35 PM 48.2 °F - 46.4 °F 93% 29.91 in 9.0 mi SW 4.6 mph - N/A   Unknown
10:55 PM 48.2 °F - 46.4 °F 93% 29.92 in 5.0 mi WSW 5.8 mph - N/A Rain Light Rain
11:15 PM 46.4 °F - 46.4 °F 100% 29.92 in 10.0 mi Calm Calm - N/A   Unknown
11:35 PM 46.4 °F - 46.4 °F 100% 29.92 in 3.0 mi Calm Calm - N/A Rain Light Rain
11:55 PM 46.4 °F 44.3 °F 46.4 °F 100% 29.93 in 10.0 mi South 4.6 mph - N/A   Unknown